Location: Unspecified
(0.0000°N, 0.0000°E)
Time: 19:45:54
(UTC+00:00)

Tiros 1 despin weight - Pass Details

Date: 27 May 2022
Orbit: 591 x 639 km, 48.2° (Epoch: 25 June)

Event Time Altitude Azimuth Distance (km) Brightness Sun altitude
Rises 02:05:24 0° 334° (NNW) 2,805 - -52.2°
Reaches altitude 10° 02:07:47 10° 342° (NNW) 1,910 - -51.7°
Maximum altitude 02:11:52 38° 51° (NE) 909 - -50.8°
Drops below altitude 10° 02:16:00 10° 120° (ESE) 1,937 - -50.0°
Sets 02:18:25 0° 128° (SE) 2,850 - -49.5°
